Theta_e
309 310 311 312 312 319 324 325 325 328 325 315 308 310 311 310 310 308 307 307 306 306 307 307 307 307 306 306 305 305 304 303 304 304 305 305 304 304 303 301 300 300 299
309 309 309 312 312 313 321 326 323 322 322 320 312 310 310 311 310 309 307 307 306 307 307 308 308 307 306 305 305 305 304 302 302 303 305 305 305 305 304 302 301 300 299
309 310 310 310 312 316 317 325 326 326 327 321 318 313 312 312 311 310 308 307 307 307 308 308 308 308 307 306 305 304 304 302 301 301 303 303 303 304 304 303 301 300 299
310 310 310 310 312 314 319 328 327 322 321 322 322 319 312 312 311 310 309 308 308 309 309 309 308 308 307 306 305 304 303 302 301 300 300 300 299 301 299 300 300 300 300
317 310 310 311 311 313 324 326 328 328 323 322 318 315 313 312 311 311 310 310 310 310 310 309 309 308 307 305 305 305 303 301 300 299 299 298 298 298 298 298 298 298 297
316 312 310 311 312 317 323 328 327 326 325 323 323 318 313 313 312 311 310 311 311 310 310 310 309 308 306 305 305 305 303 300 299 299 297 297 297 297 297 297 297 296 297
314 311 310 310 316 318 325 327 326 325 325 321 320 317 318 313 312 311 311 310 310 311 310 310 308 307 306 305 305 304 302 299 298 297 296 296 296 296 296 296 295 295 295
315 309 310 311 313 315 318 324 327 328 325 323 319 318 315 313 312 312 312 311 311 311 310 309 307 306 305 305 305 303 301 297 296 296 295 295 295 295 295 294 294 294 294
315 313 316 315 313 316 316 320 322 325 325 326 323 318 313 312 311 311 311 311 312 311 310 307 306 305 305 305 304 301 296 297 296 295 295 295 294 294 294 294 293 293 292
314 316 318 317 319 320 321 322 323 323 323 324 320 315 313 311 312 311 311 312 312 311 309 307 305 305 304 304 301 297 296 295 294 294 294 294 294 294 293 294 293 291 289
314 314 317 319 319 320 320 320 319 320 319 320 318 314 313 312 310 311 312 312 313 312 312 306 305 304 304 300 296 296 295 295 294 294 294 294 294 294 293 290 289 289 288
314 315 316 317 318 318 318 318 317 315 317 317 316 314 312 311 311 313 315 314 311 308 306 305 304 303 299 296 295 295 295 294 294 294 294 294 292 290 289 289 288 288 287
312 315 317 316 316 317 317 315 314 315 315 315 315 313 312 312 313 315 313 312 310 307 305 304 302 300 296 295 295 295 294 294 295 294 291 290 290 289 289 288 287 287 286
312 313 315 316 316 315 316 316 315 315 315 315 315 313 313 313 314 314 312 309 307 305 303 300 297 296 295 295 295 294 294 294 291 290 290 289 289 288 288 287 286 286 286
311 312 312 313 313 314 315 315 314 315 315 315 314 313 312 314 314 311 308 306 303 302 298 296 296 296 296 294 294 295 292 290 290 290 289 289 288 288 287 286 286 287 287
310 311 311 311 310 311 312 312 314 314 314 314 313 313 313 312 310 307 304 302 300 298 297 296 296 295 294 295 292 290 290 290 290 289 289 288 288 287 286 286 286 287 287
310 310 309 310 310 309 309 310 312 312 314 313 313 312 311 309 305 302 301 300 297 296 296 295 294 295 294 290 290 290 290 290 289 289 288 288 287 285 286 286 287 287 286
310 310 308 308 308 308 311 310 311 312 312 311 310 309 307 303 301 301 300 297 296 295 295 294 294 291 290 290 290 290 289 289 289 288 288 287 286 286 286 287 286 285 285
308 310 308 310 310 310 308 309 309 308 309 309 306 305 303 302 300 296 296 295 296 295 295 293 290 290 290 290 290 289 289 289 288 287 287 286 286 286 287 286 285 285 284
306 306 307 306 307 307 307 306 306 306 305 305 303 302 300 299 296 296 296 296 294 295 291 290 290 290 290 289 289 289 289 288 287 287 286 285 285 285 285 284 284 284 284
303 303 303 304 304 304 305 305 305 304 303 302 300 298 298 298 297 296 295 295 293 290 290 290 289 289 289 289 289 289 288 287 287 286 285 285 285 284 284 284 284 283 284
302 302 302 302 302 303 303 303 303 302 301 300 299 297 297 296 296 295 294 291 290 290 290 290 289 289 289 288 288 288 287 286 286 285 285 285 284 284 284 284 282 283 284
302 302 302 302 301 302 302 302 301 300 299 298 297 296 296 295 294 293 291 290 289 290 289 289 289 289 288 288 287 287 286 286 285 285 285 284 284 284 284 284 283 283 283
302 302 302 302 302 302 301 302 301 300 299 298 297 296 294 294 292 290 289 289 289 289 289 289 289 288 287 287 287 286 286 285 285 285 284 283 283 283 283 283 283 283 283
302 302 301 301 301 301 301 300 300 299 298 297 296 294 294 292 290 289 289 289 289 289 289 288 288 287 287 287 286 286 285 284 284 285 283 283 283 283 283 283 283 283 283
302 302 301 300 300 300 300 299 299 298 297 296 294 294 292 290 289 289 289 289 288 288 288 288 287 287 287 287 286 285 284 285 284 284 283 283 283 283 283 283 283 283 283
Wind_Speed
26 25 20 17 16 23 24 18 33 43 40 35 36 31 28 25 23 20 18 16 15 13 11 9 7 6 6 5 6 6 6 7 8 8 7 7 6 5 3 2 2 1 4
25 25 23 21 20 26 23 23 31 46 40 35 33 31 28 26 21 20 18 17 15 13 11 9 6 6 5 5 5 6 6 6 9 7 7 5 7 8 6 6 5 5 5
25 26 24 24 20 28 28 26 35 44 37 35 32 30 28 25 25 23 21 19 16 13 11 9 7 6 5 5 6 6 6 6 7 7 5 4 4 6 8 9 9 9 9
24 25 26 26 25 28 31 32 29 24 35 38 35 35 36 34 29 24 21 19 17 14 11 10 7 6 5 4 5 5 5 6 5 5 4 4 4 3 3 7 9 11 13
23 17 25 26 26 25 32 30 29 31 40 36 36 33 32 30 26 23 21 19 17 15 12 9 8 6 5 5 6 5 6 5 5 4 4 4 3 3 5 6 6 9 14
25 14 16 19 23 24 29 32 30 31 35 35 33 33 23 22 21 20 20 18 15 14 11 8 7 7 6 5 4 4 4 3 3 4 4 4 4 4 5 10 14 17 21
25 10 12 20 22 23 29 32 31 30 32 32 35 34 26 11 14 20 20 17 15 12 9 7 6 7 6 5 5 4 3 3 3 3 3 5 5 6 8 12 17 21 26
26 4 10 16 17 20 26 28 30 31 30 30 29 28 25 24 13 16 16 14 12 10 6 6 7 6 5 5 3 3 4 5 3 3 3 5 7 10 12 15 19 25 26
24 7 7 15 15 18 23 26 28 30 30 28 29 30 31 37 28 18 17 17 12 10 10 7 6 5 5 4 5 5 3 4 4 3 4 6 9 12 14 17 19 22 23
20 12 2 8 15 20 24 27 29 30 29 29 30 31 32 31 32 22 19 15 15 16 14 11 9 7 8 8 7 5 3 4 4 4 5 8 11 14 16 19 22 23 24
23 17 6 4 10 15 19 23 26 28 28 29 32 33 32 32 32 30 24 23 19 12 8 10 13 10 10 8 7 5 3 4 6 6 8 10 14 17 20 22 23 23 25
18 16 9 2 4 8 12 17 23 27 28 32 36 38 36 32 30 30 21 15 13 13 11 14 14 13 10 8 6 5 3 4 6 8 12 15 17 20 21 22 23 24 23
12 12 8 5 3 2 6 13 19 25 28 36 39 39 37 38 34 25 21 19 15 15 16 16 14 9 10 8 5 1 2 5 8 12 15 17 18 20 21 22 22 22 22
9 9 6 3 4 7 13 14 18 23 30 38 38 39 35 32 27 23 19 19 19 19 17 14 12 10 8 5 3 2 4 9 11 14 16 18 19 20 22 21 21 20 21
8 9 8 6 2 7 18 16 24 26 30 39 37 37 32 30 27 26 22 20 18 16 15 14 12 9 6 4 2 3 7 10 12 15 16 17 19 20 19 18 17 20 23
6 8 10 12 6 5 14 21 24 26 30 35 34 32 29 27 25 23 24 22 19 17 14 12 10 8 5 1 5 6 8 11 13 14 16 17 18 18 16 14 14 16 21
7 15 15 12 16 12 9 17 24 30 33 33 32 31 29 25 24 24 23 21 19 17 14 11 8 5 2 3 5 7 10 12 14 16 17 17 17 16 16 17 20 20 22
8 13 15 18 17 19 19 21 22 24 26 30 31 31 27 28 26 22 21 20 19 15 12 9 6 3 2 5 7 9 11 13 15 17 17 18 18 17 17 19 23 23 21
7 8 7 7 8 12 14 13 20 19 18 19 20 23 24 26 26 25 22 20 15 13 9 6 4 2 3 7 9 11 12 15 16 16 17 19 18 16 14 19 22 23 18
7 6 7 8 9 11 14 14 15 17 18 19 20 20 22 22 23 21 18 16 13 10 7 5 2 2 5 8 11 13 15 15 16 17 17 16 16 13 15 17 21 20 20
6 7 7 8 9 11 12 13 15 16 20 22 22 22 21 20 18 17 14 12 10 7 5 2 1 3 6 8 11 13 14 15 17 17 17 17 15 16 18 16 15 16 18
7 7 7 9 10 11 13 15 18 20 21 21 22 21 19 18 15 13 13 10 7 5 2 1 2 4 7 9 11 13 13 13 15 16 17 18 18 18 18 16 14 16 18
9 9 10 12 13 13 13 17 19 21 22 22 22 21 20 17 14 10 9 8 6 3 1 1 4 7 9 10 11 11 12 12 14 14 16 17 17 17 16 15 15 15 14
12 11 11 12 14 15 15 14 18 20 20 21 21 19 17 15 12 10 7 5 3 1 1 4 6 7 8 9 11 13 13 15 16 16 16 17 17 17 15 13 12 12 12
12 12 12 13 14 16 16 15 16 18 20 19 18 16 14 12 10 10 7 4 2 2 3 5 6 8 9 10 13 11 12 14 15 18 16 15 15 13 12 11 10 9 10
16 15 12 13 14 15 17 18 19 20 20 20 19 16 14 13 10 8 6 4 3 3 4 5 8 10 12 13 13 12 15 15 17 16 16 15 14 13 13 12 12 11 12
Wind_Direction
266 260 251 245 233 227 224 235 220 195 191 187 179 181 183 184 186 186 190 186 188 184 188 188 182 183 180 175 185 179 169 170 174 174 168 172 181 193 209 226 227 288 326
280 261 253 238 233 217 218 224 219 210 183 187 185 184 182 186 188 186 191 189 188 184 186 186 186 183 185 173 187 188 184 180 184 188 192 198 217 220 229 237 250 265 293
294 272 249 230 228 218 212 209 222 205 187 187 185 182 185 183 185 188 190 189 187 186 186 189 183 192 191 179 189 192 194 199 197 206 211 200 221 210 232 235 256 267 280
311 266 241 230 222 222 214 216 212 236 203 190 191 190 188 187 191 190 188 189 186 184 188 190 184 198 195 185 196 188 197 200 213 206 226 243 244 215 231 247 257 265 282
324 294 242 230 219 219 215 211 222 210 214 198 189 195 191 187 187 185 188 188 188 184 188 192 187 194 192 188 198 190 193 193 202 224 242 251 257 271 268 269 260 272 285
330 296 241 222 214 214 209 211 212 214 215 211 195 198 187 185 184 187 190 188 190 190 187 191 196 184 189 194 186 192 199 203 216 228 237 249 271 286 291 296 298 301 302
336 293 219 197 206 211 202 204 211 213 215 209 198 191 178 188 203 196 194 192 193 193 189 190 192 186 182 187 188 188 200 222 230 233 273 290 293 295 306 310 308 312 312
349 305 193 193 208 213 203 202 209 215 215 213 199 177 170 174 210 205 194 190 185 179 179 190 192 189 182 181 182 212 232 208 206 243 271 287 300 310 318 316 316 317 315
2 4 194 203 202 202 201 207 209 211 214 214 203 187 182 170 170 208 209 192 178 187 182 182 200 204 198 189 216 212 202 244 252 252 282 301 309 313 318 314 314 316 315
7 7 311 218 214 214 212 211 212 210 207 206 194 180 173 179 172 196 199 190 192 193 178 184 197 199 212 203 205 185 195 255 257 291 304 309 313 315 313 311 312 312 309
7 3 353 214 216 217 213 211 209 205 200 194 186 182 177 176 172 176 193 194 197 195 206 190 191 194 202 197 197 187 202 257 283 306 312 313 317 312 312 312 312 312 312
3 11 15 48 171 206 207 204 203 200 197 184 179 181 179 173 173 178 188 190 182 174 182 194 190 178 177 192 193 192 212 263 299 314 312 316 315 313 313 314 317 317 314
358 7 27 59 86 163 200 205 203 194 192 179 178 176 170 172 176 184 194 184 191 179 176 186 189 169 179 189 194 205 254 293 310 314 315 319 318 317 318 320 319 315 313
357 9 9 360 239 217 213 200 203 203 188 183 183 182 185 181 175 177 178 172 173 176 178 179 170 170 172 178 195 238 307 314 316 321 320 322 321 322 321 320 318 319 321
5 14 15 13 299 212 187 207 194 198 190 181 174 172 173 173 168 165 169 167 171 172 172 173 170 170 170 183 227 305 322 320 318 325 324 323 323 323 322 322 324 323 325
22 36 52 52 58 139 172 178 184 185 191 176 168 165 164 158 156 163 167 164 167 169 166 170 168 166 171 244 297 329 324 317 324 325 326 328 325 323 325 323 321 324 324
55 71 55 57 67 80 136 156 171 172 167 161 162 159 151 151 159 161 161 164 165 163 162 169 167 168 218 269 315 330 321 325 328 329 329 325 325 330 327 319 315 320 323
125 116 101 91 81 72 82 108 125 140 144 148 150 147 149 152 158 162 163 159 162 158 159 169 172 202 269 312 324 332 327 328 331 327 326 327 328 329 327 323 316 320 323
154 137 135 148 127 112 98 95 112 115 131 138 142 149 156 159 160 159 157 159 159 160 166 177 180 201 298 322 324 329 330 330 325 327 333 325 323 323 337 315 317 323 329
167 167 150 149 148 136 144 141 141 143 146 149 153 156 159 155 157 157 158 160 164 167 168 174 170 308 321 324 330 331 325 324 329 330 328 323 322 333 324 318 318 326 332
158 157 153 159 162 162 158 157 154 158 158 157 159 159 158 157 159 157 159 164 167 168 170 170 5 337 325 324 320 317 327 331 328 329 329 331 328 330 330 327 326 330 319
167 163 166 165 163 160 160 163 160 161 163 163 162 159 154 157 159 165 164 166 166 164 163 289 326 335 323 316 319 327 327 325 324 330 331 331 332 331 329 327 326 324 331
169 162 161 161 160 162 167 166 165 165 164 165 162 161 160 161 162 168 175 173 166 179 210 344 331 321 319 323 323 322 323 327 325 326 330 332 332 331 332 330 329 330 330
172 166 162 159 156 156 162 178 169 166 168 168 166 165 165 165 168 169 168 175 180 191 322 320 313 313 321 326 321 322 325 328 331 335 338 335 336 334 331 330 330 334 338
178 174 169 169 167 164 166 175 175 171 171 169 166 167 170 174 177 177 179 183 209 271 304 304 312 325 331 325 319 321 324 328 334 332 332 330 330 329 331 336 342 341 339
187 175 173 173 171 170 168 172 176 175 175 175 175 176 179 181 184 187 192 202 240 275 288 314 332 333 326 322 320 315 318 331 321 327 328 331 330 332 337 340 343 343 339